GW2412 Weather Reports


Display with metric or nautical units.
time (UTC)temp
F
wind
direction
speed
MPH
gust
MPH
rain 1hr
in
rain 24hr
in
rain mn
in
humidity
%
barometer
mb
20260505204547 45 341 19.0 30.0 0.00 0.00 0.00 1 1018.8
20260505204015 45 310 20.0 28.0 0.00 0.00 0.00 1 1018.9
20260505203521 44 333 19.0 28.0 0.00 0.00 0.00 1 1019.0
20260505203119 43 339 18.0 29.0 0.00 0.00 0.00 1 1018.9
20260505202520 44 355 21.0 29.0 0.00 0.00 0.00 1 1018.7
20260505202023 44 355 18.0 29.0 0.00 0.00 0.00 1 1019.2
20260505201606 44 320 17.0 28.0 0.00 0.00 0.00 1 1018.9
20260505201019 43 360 18.0 29.0 0.00 0.00 0.00 1 1019.2
20260505200521 43 342 20.0 29.0 0.00 0.00 0.00 1 1019.2
20260505200123 43 305 21.0 28.0 0.00 0.00 0.00 1 1018.9
20260505195521 43 319 18.0 30.0 0.00 0.00 0.00 1 1019.2
20260505195021 43 316 18.0 32.0 0.00 0.00 0.00 1 1019.2
20260505194603 43 346 21.0 32.0 0.00 0.00 0.00 1 1019.1
20260505194017 43 344 20.0 31.0 0.00 0.00 0.00 1 1019.1
20260505193517 43 330 19.0 28.0 0.00 0.00 0.00 1 1019.3
20260505193045 42 309 19.0 27.0 0.00 0.00 0.00 1 1019.3
20260505192518 43 312 18.0 27.0 0.00 0.00 0.00 1 1019.3
20260505192017 43 355 17.0 27.0 0.00 0.00 0.00 1 1019.3
20260505191555 42 321 15.0 28.0 0.00 0.00 0.00 1 1019.4
20260505191021 42 335 17.0 25.0 0.00 0.00 0.00 1 1019.3
20260505190522 42 327 19.0 29.0 0.00 0.00 0.00 1 1019.3
20260505190055 43 344 20.0 29.0 0.00 0.00 0.00 1 1019.2
20260505185516 42 300 18.0 28.0 0.00 0.00 0.00 1 1019.2
20260505185014 42 5 19.0 28.0 0.00 0.00 0.00 1 1019.1
20260505184605 43 360 20.0 27.0 0.00 0.00 0.00 1 1019.3
20260505184017 42 352 17.0 30.0 0.00 0.00 0.00 1 1018.9
20260505183516 43 360 23.0 29.0 0.00 0.00 0.00 1 1018.7
20260505183057 43 315 18.0 28.0 0.00 0.00 0.00 1 1019.2
20260505182515 42 14 17.0 28.0 0.00 0.00 0.00 1 1019.1
20260505182025 42 349 16.0 25.0 0.00 0.00 0.00 1 1019.2
20260505181554 41 341 19.0 25.0 0.00 0.00 0.00 1 1019.2
20260505181019 43 327 17.0 25.0 0.00 0.00 0.00 1 1019.3
20260505180515 41 345 18.0 29.0 0.00 0.00 0.00 1 1019.2
20260505180100 40 5 20.0 29.0 0.00 0.00 0.00 1 1019.2
20260505175515 41 313 17.0 24.0 0.00 0.00 0.00 1 1019.2
20260505175016 40 306 15.0 24.0 0.00 0.00 0.00 1 1019.1
20260505174557 40 319 20.0 24.0 0.00 0.00 0.00 1 1019.1
20260505174018 42 317 14.0 24.0 0.00 0.00 0.00 1 1019.3
20260505173526 41 26 16.0 29.0 0.00 0.00 0.00 1 1019.3
20260505173114 41 360 19.0 27.0 0.00 0.00 0.00 1 1019.3
20260505172517 41 304 16.0 23.0 0.00 0.00 0.00 1 1019.5
20260505172014 40 350 18.0 25.0 0.00 0.00 0.00 1 1019.3
20260505171605 39 355 19.0 25.0 0.00 0.00 0.00 1 1019.2
20260505171016 40 349 15.0 22.0 0.00 0.00 0.00 1 1019.4
20260505170518 40 347 16.0 23.0 0.00 0.00 0.00 1 1019.3
20260505170052 40 13 16.0 23.0 0.00 0.00 0.00 1 1019.3
20260505165518 39 342 12.0 18.0 0.00 0.00 0.00 1 1019.5
20260505165015 38 315 10.0 20.0 0.00 0.00 0.00 1 1019.6
20260505164545 38 325 14.0 20.0 0.00 0.00 0.00 1 1019.5
20260505164016 38 319 9.0 19.0 0.00 0.00 0.00 1 1019.5
20260505163519 38 305 10.0 23.0 0.00 0.00 0.00 1 1019.5
20260505163050 38 301 13.0 23.0 0.00 0.00 0.00 1 1019.3
20260505162515 39 348 13.0 22.0 0.00 0.00 0.00 1 1019.2
20260505162019 40 355 17.0 25.0 0.00 0.00 0.00 1 1019.2
20260505161555 38 360 13.0 25.0 0.00 0.00 0.00 1 1019.4
20260505161016 37 13 13.0 19.0 0.00 0.00 0.00 1 1019.4
20260505160517 38 341 14.0 18.0 0.00 0.00 0.00 1 1019.4
20260505153049 36 323 10.0 15.0 0.00 0.00 0.00 1 1019.6
20260505152519 36 347 8.0 13.0 0.00 0.00 0.00 1 1019.7
20260505152017 36 318 8.0 14.0 0.00 0.00 0.00 1 1019.7
20260505151545 35 321 10.0 14.0 0.00 0.00 0.00 1 1019.6
20260505151019 35 336 10.0 14.0 0.00 0.00 0.00 1 1019.7
20260505150522 35 313 8.0 13.0 0.00 0.00 0.00 1 1019.7
20260505150125 35 302 8.0 12.0 0.00 0.00 0.00 1 1019.8
20260505140518 32 337 6.0 13.0 0.00 0.00 0.00 1 1019.5
20260505130108 30 273 6.0 9.0 0.00 0.00 0.00 1 1019.1
20260505125019 30 280 6.0 9.0 0.00 0.00 0.00 1 1018.9
20260505124601 30 294 6.0 9.0 0.00 0.00 0.00 1 1019.0
20260505124020 30 286 6.0 10.0 0.00 0.00 0.00 1 1019.0
20260505123520 30 281 7.0 10.0 0.00 0.00 0.00 1 1019.2
20260505123056 29 265 7.0 9.0 0.00 0.00 0.00 1 1019.2
20260505122522 30 281 7.0 10.0 0.00 0.00 0.00 1 1018.9
20260505122203 30 279 7.0 10.0 0.00 0.00 0.00 1 1019.1
20260505121604 30 296 7.0 9.0 0.00 0.00 0.00 1 1019.1
20260505121013 30 283 5.0 8.0 0.00 0.00 0.00 1 1019.1
20260505120510 30 302 6.0 9.0 0.00 0.00 0.00 1 1019.0
20260505120035 30 298 5.0 10.0 0.00 0.00 0.00 1 1019.3
20260505115512 30 304 7.0 10.0 0.00 0.00 0.00 1 1019.2
20260505115010 30 304 7.0 10.0 0.00 0.00 0.00 1 1019.0
20260505114538 30 310 7.0 9.0 0.00 0.00 0.00 1 1019.2
20260505114012 30 300 6.0 9.0 0.00 0.00 0.00 1 1019.1
20260505113513 30 288 6.0 11.0 0.00 0.00 0.00 1 1019.0
20260505113041 31 296 8.0 12.0 0.00 0.00 0.00 1 1018.9
20260505112514 31 302 8.0 12.0 0.00 0.00 0.00 1 1018.9
20260505112011 31 292 9.0 12.0 0.00 0.00 0.00 1 1018.8
20260505111540 31 304 8.0 12.0 0.00 0.00 0.00 1 1018.6
20260505111011 31 303 7.0 11.0 0.00 0.00 0.00 1 1018.8
20260505110511 31 311 8.0 11.0 0.00 0.00 0.00 1 1018.7
20260505102010 32 326 9.0 12.0 0.00 0.00 0.00 1 1018.7
20260505101542 33 327 10.0 14.0 0.00 0.00 0.00 1 1018.6
20260505101010 33 331 10.0 14.0 0.00 0.00 0.00 1 1018.6
20260505100513 33 338 9.0 14.0 0.00 0.00 0.00 1 1018.7
20260505100043 34 349 10.0 14.0 0.00 0.00 0.00 1 1018.6
20260505095510 34 346 11.0 16.0 0.00 0.00 0.00 1 1018.5
20260505095015 34 360 12.0 17.0 0.00 0.00 0.00 1 1018.5
20260505094533 35 324 14.0 17.0 0.00 0.00 0.00 1 1018.5
20260505094010 35 317 12.0 16.0 0.00 0.00 0.00 1 1018.6
20260505093513 35 5 12.0 16.0 0.00 0.00 0.00 1 1018.5
20260505093040 35 350 11.0 16.0 0.00 0.00 0.00 1 1018.4
20260505092514 35 346 8.0 10.0 0.00 0.00 0.00 1 1018.6
20260505092014 35 351 8.0 12.0 0.00 0.00 0.00 1 1018.5
20260505091559 36 343 8.0 15.0 0.00 0.00 0.00 1 1018.5
20260505091013 36 331 11.0 15.0 0.00 0.00 0.00 1 1018.3
20260505090513 36 336 9.0 12.0 0.00 0.00 0.00 1 1018.3
20260505090055 36 341 9.0 12.0 0.00 0.00 0.00 1 1018.2
20260505085511 36 349 8.0 13.0 0.00 0.00 0.00 1 1018.1
20260505085015 36 347 10.0 14.0 0.00 0.00 0.00 1 1018.1
20260505084539 36 351 11.0 15.0 0.00 0.00 0.00 1 1018.1
20260505084013 36 335 11.0 15.0 0.00 0.00 0.00 1 1018.1
20260505083519 36 339 10.0 13.0 0.00 0.00 0.00 1 1018.0
20260505083048 36 339 8.0 11.0 0.00 0.00 0.00 1 1018.0
20260505082511 36 351 7.0 12.0 0.00 0.00 0.00 1 1018.0
20260505082013 36 328 7.0 12.0 0.00 0.00 0.00 1 1018.0
20260505081545 36 342 6.0 10.0 0.00 0.00 0.00 1 1018.0
20260505081015 36 333 6.0 10.0 0.00 0.00 0.00 1 1018.0
20260505080514 37 322 5.0 8.0 0.00 0.00 0.00 1 1018.0
20260505080046 37 316 5.0 8.0 0.00 0.00 0.00 1 1018.1
20260505075514 37 306 6.0 8.0 0.00 0.00 0.00 1 1018.0
20260505075012 37 310 6.0 8.0 0.00 0.00 0.00 1 1018.0
20260505074542 37 325 5.0 10.0 0.00 0.00 0.00 1 1018.0
20260505074016 37 328 7.0 12.0 0.00 0.00 0.00 1 1018.0
20260505073513 37 337 9.0 13.0 0.00 0.00 0.00 1 1017.8
20260505073047 37 319 10.0 13.0 0.00 0.00 0.00 1 1017.9
20260505072514 37 339 9.0 12.0 0.00 0.00 0.00 1 1018.0
20260505072012 37 329 7.0 12.0 0.00 0.00 0.00 1 1017.8
20260505071546 38 312 9.0 14.0 0.00 0.00 0.00 1 1017.8
20260505071013 38 323 10.0 14.0 0.00 0.00 0.00 1 1017.8
20260505070515 38 324 10.0 14.0 0.00 0.00 0.00 1 1017.7
20260505070040 38 321 9.0 13.0 0.00 0.00 0.00 1 1017.8
20260505065514 38 316 10.0 17.0 0.00 0.00 0.00 1 1017.9
20260505065017 38 338 13.0 19.0 0.00 0.00 0.00 1 1017.9
20260505064539 38 340 13.0 19.0 0.00 0.00 0.00 1 1018.1
20260505064011 38 348 12.0 17.0 0.00 0.00 0.00 1 1017.8
20260505063514 38 338 11.0 19.0 0.00 0.00 0.00 1 1017.9
20260505063046 38 360 15.0 19.0 0.00 0.00 0.00 1 1017.9
20260505062514 38 327 11.0 17.0 0.00 0.00 0.00 1 1017.8
20260505062013 37 326 7.0 11.0 0.00 0.00 0.00 1 1018.1
20260505061546 37 329 3.0 7.0 0.00 0.00 0.00 1 1018.1
20260505061017 37 61 0.0 9.0 0.00 0.00 0.00 1 1018.0
20260505060513 37 350 5.0 9.0 0.00 0.00 0.00 1 1018.0
20260505060048 38 40 3.0 12.0 0.00 0.00 0.00 1 1017.9
20260505055515 38 73 9.0 16.0 0.00 0.00 0.00 1 1017.9
20260505055012 38 57 9.0 16.0 0.00 0.00 0.00 1 1018.0
20260505054549 36 67 9.0 14.0 0.00 0.00 0.00 1 1017.8
20260505054015 35 65 8.0 11.0 0.00 0.00 0.00 1 1018.0
20260505053514 35 70 5.0 6.0 0.00 0.00 0.00 1 1018.0
20260505053047 35 49 4.0 5.0 0.00 0.00 0.00 1 1017.8
20260505052514 35 49 3.0 5.0 0.00 0.00 0.00 1 1017.7
20260505052014 36 49 4.0 5.0 0.00 0.00 0.00 1 1017.8
20260505051549 36 49 3.0 5.0 0.00 0.00 0.00 1 1017.7
20260505051012 35 49 3.0 5.0 0.00 0.00 0.00 1 1017.8
20260505050514 35 49 4.0 5.0 0.00 0.00 0.00 1 1017.8
20260505041600 37 36 4.0 9.0 0.00 0.00 0.00 1 1017.4
20260505041016 37 36 5.0 11.0 0.00 0.00 0.00 1 1017.5
20260505040513 37 42 7.0 11.0 0.00 0.00 0.00 1 1017.5
20260505040050 37 45 9.0 11.0 0.00 0.00 0.00 1 1017.4
20260505035519 37 46 9.0 11.0 0.00 0.00 0.00 1 1017.4
20260505035014 37 42 7.0 12.0 0.00 0.00 0.00 1 1017.3
20260505034609 38 44 7.0 12.0 0.00 0.00 0.00 1 1017.0
20260505034015 38 60 8.0 13.0 0.00 0.00 0.00 1 1017.1
20260505033515 38 42 8.0 13.0 0.00 0.00 0.00 1 1017.1
20260505033045 38 42 6.0 14.0 0.00 0.00 0.00 1 1017.1
20260505032517 38 42 7.0 14.0 0.00 0.00 0.00 1 1017.0
20260505032011 38 53 9.0 13.0 0.00 0.00 0.00 1 1016.8
20260505031543 39 44 8.0 13.0 0.00 0.00 0.00 1 1017.0
20260505031015 39 40 10.0 15.0 0.00 0.00 0.00 1 1016.8
20260505030516 39 36 9.0 14.0 0.00 0.00 0.00 1 1016.8
20260505030057 39 40 10.0 14.0 0.00 0.00 0.00 1 1016.5
20260505025515 40 47 7.0 13.0 0.00 0.00 0.00 1 1016.5
20260505025016 40 40 10.0 16.0 0.00 0.00 0.00 1 1016.5
20260505024551 41 40 10.0 16.0 0.00 0.00 0.00 1 1016.5
20260505024012 41 28 9.0 17.0 0.00 0.00 0.00 1 1016.5
20260505023514 41 26 12.0 17.0 0.00 0.00 0.00 1 1016.2
20260505023053 42 27 12.0 21.0 0.00 0.00 0.00 1 1016.2
20260505022516 42 47 14.0 21.0 0.00 0.00 0.00 1 1016.2
20260505022016 43 38 12.0 18.0 0.00 0.00 0.00 1 1016.1
20260505021554 44 34 11.0 16.0 0.00 0.00 0.00 1 1016.3
20260505021017 45 26 9.0 17.0 0.00 0.00 0.00 1 1016.2
20260505020514 45 24 13.0 17.0 0.00 0.00 0.00 1 1016.2
20260505020106 46 15 11.0 17.0 0.00 0.00 0.00 1 1016.2
20260505015516 46 360 13.0 22.0 0.00 0.00 0.00 1 1015.9
20260505015015 47 23 15.0 22.0 0.00 0.00 0.00 1 1015.7
20260505014548 47 15 16.0 26.0 0.00 0.00 0.00 1 1015.8
20260505014014 47 5 19.0 26.0 0.00 0.00 0.00 1 1015.6
20260505013516 47 355 19.0 24.0 0.00 0.00 0.00 1 1015.5
20260505013053 48 5 19.0 24.0 0.00 0.00 0.00 1 1015.2
20260505012514 48 352 17.0 25.0 0.00 0.00 0.00 1 1015.4
20260505012020 48 348 19.0 25.0 0.00 0.00 0.00 1 1015.3
20260505011550 48 360 17.0 23.0 0.00 0.00 0.00 1 1015.1
20260505011014 49 355 13.0 24.0 0.00 0.00 0.00 1 1015.3
20260505010514 49 12 18.0 28.0 0.00 0.00 0.00 1 1015.2
20260505010109 49 5 19.0 31.0 0.00 0.00 0.00 1 1015.1
20260505005516 49 5 23.0 31.0 0.00 0.00 0.00 1 1014.9
20260505005019 49 360 22.0 29.0 0.00 0.00 0.00 1 1014.8
20260505004550 50 333 18.0 26.0 0.00 0.00 0.00 1 1015.1
20260505004012 50 360 14.0 26.0 0.00 0.00 0.00 1 1015.2
20260505003516 50 337 20.0 27.0 0.00 0.00 0.00 1 1014.6
20260505003050 50 348 21.0 31.0 0.00 0.00 0.00 1 1014.7
20260505002519 50 344 21.0 31.0 0.00 0.00 0.00 1 1014.7
20260505002015 50 5 20.0 26.0 0.00 0.00 0.00 1 1014.5
20260505001548 51 344 20.0 32.0 0.00 0.00 0.00 1 1015.0
20260505001018 51 318 22.0 32.0 0.00 0.00 0.00 1 1015.0
20260505000516 51 360 22.0 30.0 0.00 0.00 0.00 1 1014.6
20260505000100 51 345 19.0 32.0 0.00 0.00 0.00 1 1015.0
20260504235516 51 346 20.0 30.0 0.00 0.00 0.00 1 1014.9
20260504235016 52 335 24.0 34.0 0.00 0.00 0.00 1 1014.7
20260504234552 51 336 27.0 34.0 0.00 0.00 0.00 1 1014.3
20260504234013 51 327 23.0 33.0 0.00 0.00 0.00 1 1014.8
20260504233515 51 337 24.0 33.0 0.00 0.00 0.00 1 1014.7
20260504233054 51 347 20.0 34.0 0.00 0.00 0.00 1 1014.9
20260504232513 51 360 27.0 34.0 0.00 0.00 0.00 1 1014.2
20260504232016 52 340 23.0 34.0 0.00 0.00 0.00 1 1014.7
20260504231552 52 322 20.0 32.0 0.00 0.00 0.00 1 1014.9
20260504231015 51 333 24.0 36.0 0.00 0.00 0.00 1 1014.4
20260504230512 51 306 22.0 34.0 0.00 0.00 0.00 1 1014.8
20260504230108 52 340 22.0 34.0 0.00 0.00 0.00 1 1014.7
20260504225514 52 342 20.0 31.0 0.00 0.00 0.00 1 1015.0
20260504225012 51 346 25.0 33.0 0.00 0.00 0.00 1 1014.5
20260504224606 51 343 27.0 33.0 0.00 0.00 0.00 1 1014.7
20260504224013 51 339 24.0 31.0 0.00 0.00 0.00 1 1014.7
20260504223516 52 322 22.0 31.0 0.00 0.00 0.00 1 1014.9
20260504223100 51 325 22.0 35.0 0.00 0.00 0.00 1 1014.8
20260504222513 51 324 23.0 35.0 0.00 0.00 0.00 1 1014.2
20260504222014 50 324 23.0 34.0 0.00 0.00 0.00 1 1014.9
20260504221549 51 340 24.0 31.0 0.00 0.00 0.00 1 1014.7
20260504221014 52 299 17.0 30.0 0.00 0.00 0.00 1 1015.1
20260504220515 51 349 20.0 31.0 0.00 0.00 0.00 1 1015.3
20260504220059 50 328 24.0 31.0 0.00 0.00 0.00 1 1014.9
20260504215517 50 317 24.0 31.0 0.00 0.00 0.00 1 1014.6
20260504215013 50 344 22.0 35.0 0.00 0.00 0.00 1 1014.9
20260504214556 50 338 25.0 35.0 0.00 0.00 0.00 1 1014.6
20260504214019 51 338 21.0 30.0 0.00 0.00 0.00 1 1015.0
20260504213516 51 360 21.0 30.0 0.00 0.00 0.00 1 1015.1
20260504213050 51 301 21.0 29.0 0.00 0.00 0.00 1 1015.0
20260504212516 49 305 19.0 32.0 0.00 0.00 0.00 1 1015.2
20260504212014 48 310 22.0 33.0 0.00 0.00 0.00 1 1015.2
20260504211558 49 320 24.0 33.0 0.00 0.00 0.00 1 1015.3
20260504211016 50 355 23.0 32.0 0.00 0.00 0.00 1 1015.3
20260504210521 51 325 23.0 32.0 0.00 0.00 0.00 1 1015.3
20260504210106 49 360 24.0 32.0 0.00 0.00 0.00 1 1015.3
20260504205517 52 342 20.0 32.0 0.00 0.00 0.00 1 1015.2
20260504205017 50 338 24.0 30.0 0.00 0.00 0.00 1 1015.1
20260504204602 48 339 18.0 28.0 0.00 0.00 0.00 1 1015.5